Tracking 29892 objects as of 21-Nov-2024
HD Live streaming from Space Station
objects crossing your sky now

STARLINK-3124

Track STARLINK-3124 now!
10-day predictions
STARLINK-3124 is classified as:


NORAD ID: 49456
Int'l Code: 2021-104BA
Perigee: 546.5 km
Apogee: 547.4 km
Inclination: 53.2 °
Period: 95.4 minutes
Semi major axis: 6917 km
RCS: Unknown
Launch date: November 13, 2021
Source: United States (US)
Launch site: AIR FORCE EASTERN TEST RANGE (AFETR)
Your satellite tracking list
Your tracking list is empty




NASA's NSSDC Master Catalog

Two Line Element Set (TLE):
1 49456U 21104BA  24325.59317193 -.00002490  00000-0 -13857-3 0  9994
2 49456  53.2167 187.4670 0000616 191.5068 168.5910 15.08812599167204
Source of the keplerian elements: AFSPC